User: anonymous   Login
Location: Asheville, NC
(35.6000°N, 82.5500°W)
Time: 02:42:02
(UTC-04:00)
Language:

AIST 2D - Orbit

View from above orbital plane
View from above orbital plane
View from above satellite
View from above satellite

Ground track
Ground track

The orbit data is extracted from the following two-line orbital elements,

1 41465U 16026B   18198.73859493  .00001189  00000-0  39897-4 0  9999
2 41465  97.2199  97.6019 0009694 245.6048 179.7886 15.32797082124027
Epoch (UTC): 17 July 2018 17:43:34
Eccentricity: 0.0009694
inclination: 97.2199°
perigee height: 461 km
apogee height: 474 km
right ascension of ascending node: 97.6019°
argument of perigee: 245.6048°
revolutions per day: 15.32797082
mean anomaly at epoch: 179.7886°
orbit number at epoch: 12402

The dashed part of the orbit path shows where the satellite is in the earth's shadow,  

DLR